sat.trackr.live / text

‹ back to catalog

STARLINK-30271

NORAD 57669 · 2023-124G

PAYLOAD ACTIVE UNKNOWN

§ Identity

Operator
Country
US
Launch date
2023-08-22
Launch site
AFWTR
Launch vehicle
Mass (kg)
RCS (m²)

Purposes: comms

External: N2YO · Heavens-Above · Gunter

§ Orbital elements

Epoch: 2026-05-24T21:44:22.670016Z

Period
94.01 min
Inclination
53.1600°
Eccentricity
0.0001097
Mean motion
15.31696668 rev/d
Perigee alt
470.0 km
Apogee alt
471.5 km
Semi-major
6,848.9 km
B*
1.4242e-5
RAAN
212.7162°
Arg perigee
94.2397°
Mean anomaly
265.8730°
Rev number
15,523

§ Raw data

STARLINK-302711 57669U 23124G   26144.90581794  .00000077  00000+0  14242-4 0  99952 57669  53.1600 212.7162 0001097  94.2397 265.8730 15.31696668155230

JSON: /api/v1/satellites/57669 · /tle

For live sub-satellite position, see the globe view (requires WebGL).

§ Visibility from observer

Set your observer location to see the next 7 days of passes ≥ 10°. The values pass through the URL so the page stays shareable.

No JS? Fill the form by hand. The geolocation button needs JavaScript.